,,,PA_Meas_PMT16A,,PR_Meas_QMR101_102,,RH_Meas_QMH101,,SR_Meas_QMS101,,TA_Meas_QMH101,,GenWind,,GenWind,
date,time,status,PA,status,PR,status,RH,status,SR,status,TA,status,DirAvg,status,SpdAvg,
2011-07-14, 00:00:04,VALID,1000.42,VALID,0,VALID,89.2513,VALID,0,VALID,22.9971,VALID,106,VALID,1.09141,
2011-07-14, 00:01:04,VALID,1000.43,VALID,0,VALID,89.32,VALID,0,VALID,22.9988,VALID,114,VALID,1.14297,
2011-07-14, 00:02:04,VALID,1000.44,VALID,0,VALID,89.381,VALID,0,VALID,22.9793,VALID,114,VALID,1.06914,
2011-07-14, 00:03:04,VALID,1000.43,VALID,0,VALID,89.381,VALID,0,VALID,22.9988,VALID,111,VALID,1.00078,
2011-07-14, 00:04:04,VALID,1000.41,VALID,0,VALID,89.2055,VALID,0,VALID,23.0006,VALID,104,VALID,1.35703,
2011-07-14, 00:05:04,VALID,1000.4,VALID,0,VALID,88.9766,VALID,0,VALID,23.0183,VALID,98,VALID,1.42656,
2011-07-14, 00:06:04,VALID,1000.4,VALID,0,VALID,88.6791,VALID,0,VALID,23.0378,VALID,98,VALID,1.24609,
2011-07-14, 00:07:04,VALID,1000.41,VALID,0,VALID,88.4731,VALID,0,VALID,23.0769,VALID,101,VALID,1.16523,
2011-07-14, 00:08:04,VALID,1000.41,VALID,0,VALID,88.3205,VALID,0,VALID,23.0769,VALID,101,VALID,0.995703,
2011-07-14, 00:09:04,VALID,1000.44,VALID,0,VALID,88.4044,VALID,0,VALID,23.0964,VALID,101,VALID,1.15742,
2011-07-14, 00:10:04,VALID,1000.45,VALID,0,VALID,88.6409,VALID,0,VALID,23.0946,VALID,101,VALID,1.14531,
2011-07-14, 00:11:04,VALID,1000.45,VALID,0,VALID,88.7935,VALID,0,VALID,23.1159,VALID,101,VALID,1.18828,
2011-07-14, 00:12:04,VALID,1000.45,VALID,0,VALID,88.8546,VALID,0,VALID,23.1159,VALID,95,VALID,1.22344,
2011-07-14, 00:13:04,VALID,1000.4,VALID,0,VALID,88.8164,VALID,0,VALID,23.1354,VALID,96,VALID,0.545703,
2011-07-14, 00:14:04,VALID,1000.42,VALID,0,VALID,88.7477,VALID,0,VALID,23.1159,VALID,96,VALID,0.232812,
2011-07-14, 00:15:04,VALID,1000.39,VALID,0,VALID,88.7401,VALID,0,VALID,23.0964,VALID,97,VALID,0.171875,
2011-07-14, 00:16:04,VALID,1000.42,VALID,0,VALID,88.8469,VALID,0,VALID,23.0556,VALID,97,VALID,0.0175781,
2011-07-14, 00:17:04,VALID,1000.41,VALID,0,VALID,88.8774,VALID,0,VALID,23.0573,VALID,96,VALID,0,
2011-07-14, 00:18:04,VALID,1000.37,VALID,0,VALID,88.9232,VALID,0.112286,VALID,23.0378,VALID,96,VALID,0.0867188,
2011-07-14, 00:19:04,VALID,1000.35,VALID,0,VALID,88.969,VALID,0,VALID,23.0183,VALID,96,VALID,0.00117188,
2011-07-14, 00:20:04,VALID,1000.35,VALID,0,VALID,89.0758,VALID,0,VALID,22.9988,VALID,96,VALID,0.0378906,
2011-07-14, 00:21:04,VALID,1000.34,VALID,0,VALID,89.2666,VALID,0,VALID,22.9988,VALID,96,VALID,0.174219,
2011-07-14, 00:22:04,VALID,1000.36,VALID,0,VALID,89.3734,VALID,0,VALID,23.0183,VALID,97,VALID,0.283594,
2011-07-14, 00:23:04,VALID,1000.38,VALID,0,VALID,89.2971,VALID,0,VALID,22.9971,VALID,96,VALID,0.307031,
2011-07-14, 00:24:04,VALID,1000.35,VALID,0,VALID,89.3276,VALID,0,VALID,22.9971,VALID,97,VALID,0.286719,
2011-07-14, 00:25:04,VALID,1000.35,VALID,0,VALID,89.5336,VALID,0,VALID,23.0183,VALID,96,VALID,0.838281,
2011-07-14, 00:26:04,VALID,1000.37,VALID,0,VALID,89.8159,VALID,0,VALID,23.0751,VALID,96,VALID,0.824219,
2011-07-14, 00:27:04,VALID,1000.35,VALID,0,VALID,89.7549,VALID,0.112286,VALID,23.1141,VALID,96,VALID,0.807422,
2011-07-14, 00:28:04,VALID,1000.32,VALID,0,VALID,89.3963,VALID,0.112286,VALID,23.1354,VALID,97,VALID,0.545703,
2011-07-14, 00:29:04,VALID,1000.29,VALID,0,VALID,89.1445,VALID,0,VALID,23.1354,VALID,96,VALID,0.515625,
2011-07-14, 00:30:04,VALID,1000.28,VALID,0,VALID,88.9232,VALID,0,VALID,23.1176,VALID,96,VALID,0.405859,
2011-07-14, 00:31:04,VALID,1000.24,VALID,0,VALID,88.763,VALID,0,VALID,23.0981,VALID,97,VALID,0.289453,
2011-07-14, 00:32:04,VALID,1000.25,VALID,0,VALID,88.7096,VALID,0,VALID,23.0786,VALID,96,VALID,0.151562,
2011-07-14, 00:33:04,VALID,1000.25,VALID,0,VALID,88.5646,VALID,0,VALID,23.0378,VALID,97,VALID,0.00195313,
2011-07-14, 00:34:04,VALID,1000.26,VALID,0,VALID,88.5189,VALID,0,VALID,23.0006,VALID,96,VALID,0.0804688,
2011-07-14, 00:35:04,VALID,1000.24,VALID,0,VALID,88.6486,VALID,0,VALID,22.942,VALID,97,VALID,0.266016,
2011-07-14, 00:36:04,VALID,1000.25,VALID,0,VALID,88.9156,VALID,0,VALID,22.942,VALID,96,VALID,0.720703,
2011-07-14, 00:37:04,VALID,1000.19,VALID,0,VALID,89.2055,VALID,0,VALID,22.9403,VALID,96,VALID,0.547266,
2011-07-14, 00:38:04,VALID,1000.19,VALID,0,VALID,89.114,VALID,0,VALID,22.9615,VALID,96,VALID,0.821484,
2011-07-14, 00:39:04,VALID,1000.15,VALID,0,VALID,89.2971,VALID,0,VALID,22.9598,VALID,97,VALID,0.551172,
2011-07-14, 00:40:04,VALID,1000.15,VALID,0,VALID,89.0911,VALID,0,VALID,22.9615,VALID,97,VALID,0.414453,
2011-07-14, 00:41:04,VALID,1000.17,VALID,0,VALID,88.9309,VALID,0,VALID,22.8818,VALID,97,VALID,0.420312,
2011-07-14, 00:42:04,VALID,1000.17,VALID,0,VALID,88.824,VALID,0,VALID,22.8427,VALID,46,VALID,0.778906,
2011-07-14, 00:43:04,VALID,1000.18,VALID,0,VALID,88.8698,VALID,0,VALID,22.7647,VALID,46,VALID,0.773438,
2011-07-14, 00:44:04,VALID,1000.15,VALID,0,VALID,89.114,VALID,0,VALID,22.7469,VALID,35,VALID,0.941406,
2011-07-14, 00:45:04,VALID,1000.19,VALID,0,VALID,89.1368,VALID,0,VALID,22.6689,VALID,21,VALID,0.867188,
2011-07-14, 00:46:04,VALID,1000.15,VALID,0,VALID,89.4726,VALID,0,VALID,22.6299,VALID,21,VALID,0.827734,
2011-07-14, 00:47:04,VALID,1000.12,VALID,0,VALID,89.8922,VALID,0,VALID,22.6494,VALID,17,VALID,0.707031,
2011-07-14, 00:48:04,VALID,1000.13,VALID,0,VALID,90.1363,VALID,0,VALID,22.6299,VALID,17,VALID,0.392969,
2011-07-14, 00:49:04,VALID,1000.11,VALID,0,VALID,90.2126,VALID,0,VALID,22.6104,VALID,17,VALID,0.207422,
2011-07-14, 00:50:04,VALID,1000.15,VALID,0,VALID,90.1516,VALID,0,VALID,22.5714,VALID,17,VALID,0,
2011-07-14, 00:51:04,VALID,1000.17,VALID,0,VALID,90.1134,VALID,0,VALID,22.5323,VALID,17,VALID,0.360156,
2011-07-14, 00:52:04,VALID,1000.14,VALID,0,VALID,90.266,VALID,0,VALID,22.5323,VALID,17,VALID,0.340234,
2011-07-14, 00:53:04,VALID,1000.07,VALID,0,VALID,90.4797,VALID,0,VALID,22.5323,VALID,17,VALID,0.0625,
2011-07-14, 00:54:04,VALID,1000.07,VALID,0,VALID,90.5941,VALID,0,VALID,22.5128,VALID,17,VALID,0.229297,
2011-07-14, 00:55:04,VALID,1000.06,VALID,0,VALID,90.6933,VALID,0,VALID,22.5128,VALID,17,VALID,0.505469,
2011-07-14, 00:56:04,VALID,1000.06,VALID,0,VALID,90.6933,VALID,0,VALID,22.4526,VALID,17,VALID,0.819922,
2011-07-14, 00:57:04,VALID,1000.05,VALID,0,VALID,90.8383,VALID,0,VALID,22.4526,VALID,17,VALID,1.28984,
2011-07-14, 00:58:04,VALID,1000.02,VALID,0,VALID,90.762,VALID,0,VALID,22.4348,VALID,17,VALID,1.3082,
2011-07-14, 00:59:04,VALID,1000.02,VALID,0,VALID,90.7085,VALID,0,VALID,22.3763,VALID,17,VALID,0.957031,
2011-07-14, 01:00:04,VALID,1000.01,VALID,0,VALID,90.8001,VALID,0,VALID,22.3568,VALID,17,VALID,0.677344,
2011-07-14, 01:01:04,VALID,1000.05,VALID,0,VALID,90.9146,VALID,0,VALID,22.3551,VALID,17,VALID,0.590234,
2011-07-14, 01:02:04,VALID,1000.02,VALID,0,VALID,91.0595,VALID,0,VALID,22.3763,VALID,17,VALID,0.426172,
2011-07-14, 01:03:04,VALID,1000.05,VALID,0,VALID,91.0824,VALID,0,VALID,22.3958,VALID,17,VALID,0.155469,
2011-07-14, 01:04:04,VALID,1000.07,VALID,0,VALID,91.0977,VALID,0,VALID,22.3568,VALID,17,VALID,0.379297,
2011-07-14, 01:05:04,VALID,1000.05,VALID,0,VALID,91.0977,VALID,0,VALID,22.3356,VALID,17,VALID,0.512891,
2011-07-14, 01:06:04,VALID,1000.05,VALID,0,VALID,91.0519,VALID,0,VALID,22.3373,VALID,17,VALID,0.460547,
2011-07-14, 01:07:04,VALID,1000.04,VALID,0,VALID,91.0595,VALID,0,VALID,22.2983,VALID,17,VALID,0.583203,
2011-07-14, 01:08:04,VALID,1000.04,VALID,0,VALID,91.2503,VALID,0,VALID,22.3568,VALID,17,VALID,0.451562,
2011-07-14, 01:09:04,VALID,1000.02,VALID,0,VALID,91.3876,VALID,0,VALID,22.3958,VALID,17,VALID,0.613672,
2011-07-14, 01:10:04,VALID,1000.03,VALID,0,VALID,91.4486,VALID,0,VALID,22.3958,VALID,17,VALID,0.676562,
2011-07-14, 01:11:04,VALID,1000.02,VALID,0,VALID,91.441,VALID,0,VALID,22.3568,VALID,17,VALID,0.655859,
2011-07-14, 01:12:04,VALID,1000.02,VALID,0,VALID,91.441,VALID,0,VALID,22.3763,VALID,17,VALID,0.477344,
2011-07-14, 01:13:04,VALID,1000.03,VALID,0,VALID,91.4563,VALID,0,VALID,22.3568,VALID,17,VALID,0.334375,
2011-07-14, 01:14:04,VALID,1000,VALID,0,VALID,91.5097,VALID,0,VALID,22.3568,VALID,17,VALID,0.378516,
2011-07-14, 01:15:04,VALID,1000,VALID,0,VALID,91.5707,VALID,0,VALID,22.3763,VALID,17,VALID,0.269531,
2011-07-14, 01:16:04,VALID,1000.02,VALID,0,VALID,91.6317,VALID,0,VALID,22.3551,VALID,17,VALID,0.358203,
2011-07-14, 01:17:04,VALID,999.998,VALID,0,VALID,91.6851,VALID,0,VALID,22.3763,VALID,17,VALID,0.524219,
2011-07-14, 01:18:04,VALID,999.983,VALID,0,VALID,91.7614,VALID,0,VALID,22.4331,VALID,277,VALID,0.469531,
2011-07-14, 01:19:04,VALID,999.957,VALID,0,VALID,91.8301,VALID,0,VALID,22.4526,VALID,277,VALID,0.4125,
2011-07-14, 01:20:04,VALID,999.96,VALID,0,VALID,91.8759,VALID,0,VALID,22.5128,VALID,277,VALID,0.427734,
2011-07-14, 01:21:04,VALID,999.926,VALID,0,VALID,91.8835,VALID,0,VALID,22.5323,VALID,277,VALID,0.422656,
2011-07-14, 01:22:04,VALID,999.925,VALID,0,VALID,91.853,VALID,0,VALID,22.5519,VALID,277,VALID,0.256641,
2011-07-14, 01:23:04,VALID,999.928,VALID,0,VALID,91.8225,VALID,0,VALID,22.5519,VALID,277,VALID,0,
2011-07-14, 01:24:04,VALID,999.925,VALID,0,VALID,91.6699,VALID,0,VALID,22.4916,VALID,277,VALID,0,
2011-07-14, 01:25:04,VALID,999.917,VALID,0,VALID,91.5326,VALID,0,VALID,22.4738,VALID,277,VALID,0,
2011-07-14, 01:26:04,VALID,999.915,VALID,0,VALID,91.5097,VALID,0,VALID,22.4738,VALID,277,VALID,0,
2011-07-14, 01:27:04,VALID,999.92,VALID,0,VALID,91.4944,VALID,0,VALID,22.4543,VALID,277,VALID,0,
2011-07-14, 01:28:04,VALID,999.901,VALID,0,VALID,91.5249,VALID,0,VALID,22.4348,VALID,277,VALID,0.414453,
2011-07-14, 01:29:04,VALID,999.889,VALID,0,VALID,91.647,VALID,0,VALID,22.4738,VALID,277,VALID,0.660547,
2011-07-14, 01:30:04,VALID,999.89,VALID,0,VALID,91.6394,VALID,0,VALID,22.4543,VALID,289,VALID,0.852734,
2011-07-14, 01:31:04,VALID,999.886,VALID,0,VALID,91.6928,VALID,0,VALID,22.4331,VALID,319,VALID,0.564453,
2011-07-14, 01:32:04,VALID,999.919,VALID,0,VALID,91.6851,VALID,0,VALID,22.4136,VALID,319,VALID,0.199219,
2011-07-14, 01:33:04,VALID,999.924,VALID,0,VALID,91.4181,VALID,0,VALID,22.2983,VALID,319,VALID,0.146875,
2011-07-14, 01:34:04,VALID,999.911,VALID,0,VALID,91.3418,VALID,0,VALID,22.2592,VALID,319,VALID,0,
2011-07-14, 01:35:04,VALID,999.915,VALID,0,VALID,91.4181,VALID,0,VALID,22.2397,VALID,319,VALID,0.4,
2011-07-14, 01:36:04,VALID,999.89,VALID,0,VALID,91.4563,VALID,0,VALID,22.1795,VALID,319,VALID,0.698438,
2011-07-14, 01:37:04,VALID,999.901,VALID,0,VALID,91.5249,VALID,0,VALID,22.1617,VALID,319,VALID,0.857031,
2011-07-14, 01:38:04,VALID,999.877,VALID,0,VALID,91.7309,VALID,0,VALID,22.2007,VALID,319,VALID,0.639453,
2011-07-14, 01:39:04,VALID,999.865,VALID,0,VALID,91.8988,VALID,0,VALID,22.199,VALID,334,VALID,0.830859,
2011-07-14, 01:40:04,VALID,999.831,VALID,0,VALID,91.9522,VALID,0,VALID,22.1617,VALID,349,VALID,0.817578,
2011-07-14, 01:41:04,VALID,999.868,VALID,0,VALID,91.9903,VALID,0,VALID,22.1422,VALID,349,VALID,0.627734,
2011-07-14, 01:42:04,VALID,999.841,VALID,0,VALID,92.059,VALID,0,VALID,22.1405,VALID,349,VALID,0.562891,
2011-07-14, 01:43:04,VALID,999.874,VALID,0,VALID,92.1048,VALID,0,VALID,22.16,VALID,349,VALID,0.273828,
2011-07-14, 01:44:04,VALID,999.854,VALID,0,VALID,92.1353,VALID,0,VALID,22.16,VALID,349,VALID,0.482422,
2011-07-14, 01:45:04,VALID,999.807,VALID,0,VALID,92.0971,VALID,0,VALID,22.1405,VALID,5,VALID,0.9875,
2011-07-14, 01:46:04,VALID,999.814,VALID,0,VALID,91.9674,VALID,0,VALID,22.0837,VALID,5,VALID,0.713281,
2011-07-14, 01:47:04,VALID,999.787,VALID,0,VALID,91.8683,VALID,0,VALID,22.0447,VALID,5,VALID,0.826563,
2011-07-14, 01:48:04,VALID,999.796,VALID,0,VALID,91.8072,VALID,0,VALID,22.0252,VALID,5,VALID,0.960938,
2011-07-14, 01:49:04,VALID,999.768,VALID,0,VALID,91.6851,VALID,0,VALID,21.965,VALID,5,VALID,0.786328,
2011-07-14, 01:50:04,VALID,999.762,VALID,0,VALID,91.7538,VALID,0,VALID,22.0057,VALID,5,VALID,0.585547,
2011-07-14, 01:51:04,VALID,999.75,VALID,0,VALID,91.7767,VALID,0,VALID,22.0057,VALID,5,VALID,0.279687,
2011-07-14, 01:52:04,VALID,999.727,VALID,0,VALID,91.7309,VALID,0,VALID,21.965,VALID,5,VALID,0.00429688,
2011-07-14, 01:53:04,VALID,999.723,VALID,0,VALID,91.7691,VALID,0,VALID,21.9862,VALID,5,VALID,0.872656,
2011-07-14, 01:54:04,VALID,999.671,VALID,0,VALID,91.9369,VALID,0,VALID,22.043,VALID,25,VALID,1.39805,
2011-07-14, 01:55:04,VALID,999.675,VALID,0,VALID,92.0132,VALID,0,VALID,22.121,VALID,25,VALID,0.826953,
2011-07-14, 01:56:04,VALID,999.681,VALID,0,VALID,91.9522,VALID,0,VALID,22.1422,VALID,25,VALID,0.628906,
2011-07-14, 01:57:04,VALID,999.668,VALID,0,VALID,91.8683,VALID,0,VALID,22.1617,VALID,25,VALID,1.08711,
2011-07-14, 01:58:04,VALID,999.656,VALID,0,VALID,91.7843,VALID,0,VALID,22.1812,VALID,25,VALID,1.21289,
2011-07-14, 01:59:04,VALID,999.665,VALID,0,VALID,91.6546,VALID,0,VALID,22.1812,VALID,25,VALID,0.869141,
2011-07-14, 02:00:04,VALID,999.688,VALID,0,VALID,91.4791,VALID,0,VALID,22.16,VALID,25,VALID,0.150781,
2011-07-14, 02:01:04,VALID,999.682,VALID,0,VALID,91.3418,VALID,0,VALID,22.1405,VALID,25,VALID,0.100391,
2011-07-14, 02:02:04,VALID,999.652,VALID,0,VALID,91.2731,VALID,0,VALID,22.16,VALID,25,VALID,0.549609,
2011-07-14, 02:03:04,VALID,999.65,VALID,0,VALID,91.1663,VALID,0,VALID,22.16,VALID,25,VALID,0.558203,
2011-07-14, 02:04:04,VALID,999.668,VALID,0,VALID,91.0977,VALID,0,VALID,22.1812,VALID,25,VALID,0.575,
2011-07-14, 02:05:04,VALID,999.645,VALID,0,VALID,90.9756,VALID,0,VALID,22.1405,VALID,25,VALID,0.865234,
2011-07-14, 02:06:04,VALID,999.643,VALID,0,VALID,90.8993,VALID,0,VALID,22.16,VALID,25,VALID,1.01953,
2011-07-14, 02:07:04,VALID,999.645,VALID,0,VALID,90.884,VALID,0,VALID,22.1617,VALID,31,VALID,1.15898,
2011-07-14, 02:08:04,VALID,999.611,VALID,0,VALID,90.9527,VALID,0,VALID,22.16,VALID,41,VALID,1.14297,
2011-07-14, 02:09:04,VALID,999.584,VALID,0,VALID,91.1358,VALID,0,VALID,22.1812,VALID,41,VALID,1.26211,
2011-07-14, 02:10:04,VALID,999.602,VALID,0,VALID,91.2808,VALID,0,VALID,22.1812,VALID,60,VALID,1.15469,
2011-07-14, 02:11:04,VALID,999.58,VALID,0,VALID,91.3723,VALID,0,VALID,22.16,VALID,71,VALID,1.0918,
2011-07-14, 02:12:04,VALID,999.583,VALID,0,VALID,91.4639,VALID,0,VALID,22.16,VALID,71,VALID,0.678516,
2011-07-14, 02:13:04,VALID,999.547,VALID,0,VALID,91.4868,VALID,0,VALID,22.16,VALID,71,VALID,0.440234,
2011-07-14, 02:14:04,VALID,999.535,VALID,0,VALID,91.502,VALID,0,VALID,22.1405,VALID,71,VALID,0.234375,
2011-07-14, 02:15:04,VALID,999.551,VALID,0,VALID,91.5173,VALID,0,VALID,22.121,VALID,71,VALID,0.0332031,
2011-07-14, 02:16:04,VALID,999.533,VALID,0,VALID,91.4944,VALID,0,VALID,22.1227,VALID,71,VALID,0.581641,
2011-07-14, 02:17:04,VALID,999.529,VALID,0,VALID,91.5402,VALID,0,VALID,22.082,VALID,71,VALID,0.883594,
2011-07-14, 02:18:04,VALID,999.509,VALID,0,VALID,91.647,VALID,0,VALID,22.1227,VALID,62,VALID,0.669922,
2011-07-14, 02:19:04,VALID,999.495,VALID,0,VALID,91.7233,VALID,0,VALID,22.1015,VALID,62,VALID,0.348047,
2011-07-14, 02:20:04,VALID,999.442,VALID,0,VALID,91.7538,VALID,0,VALID,22.1015,VALID,62,VALID,0.0753906,
2011-07-14, 02:21:04,VALID,999.445,VALID,0,VALID,91.7843,VALID,0,VALID,22.1015,VALID,62,VALID,0,
2011-07-14, 02:22:04,VALID,999.423,VALID,0,VALID,91.8377,VALID,0,VALID,22.1422,VALID,62,VALID,0,
2011-07-14, 02:23:04,VALID,999.406,VALID,0,VALID,91.853,VALID,0,VALID,22.121,VALID,62,VALID,0,
2011-07-14, 02:24:04,VALID,999.403,VALID,0,VALID,91.8911,VALID,0,VALID,22.121,VALID,62,VALID,0.769531,
2011-07-14, 02:25:04,VALID,999.403,VALID,0,VALID,91.9598,VALID,0,VALID,22.1405,VALID,62,VALID,0.828125,
2011-07-14, 02:26:04,VALID,999.395,VALID,0,VALID,92.0132,VALID,0,VALID,22.16,VALID,62,VALID,0.727734,
2011-07-14, 02:27:04,VALID,999.439,VALID,0,VALID,92.0285,VALID,0,VALID,22.2202,VALID,62,VALID,0.437891,
2011-07-14, 02:28:04,VALID,999.389,VALID,0,VALID,91.9293,VALID,0,VALID,22.1812,VALID,62,VALID,0.471484,
2011-07-14, 02:29:04,VALID,999.424,VALID,0,VALID,91.7767,VALID,0,VALID,22.121,VALID,69,VALID,0.744141,
2011-07-14, 02:30:04,VALID,999.395,VALID,0,VALID,91.7538,VALID,0,VALID,22.1617,VALID,74,VALID,0.676953,
2011-07-14, 02:31:04,VALID,999.401,VALID,0,VALID,91.6851,VALID,0,VALID,22.1227,VALID,74,VALID,0,
2011-07-14, 02:32:04,VALID,999.416,VALID,0,VALID,91.5783,VALID,0,VALID,22.0837,VALID,74,VALID,0.229297,
2011-07-14, 02:33:04,VALID,999.406,VALID,0,VALID,91.6165,VALID,0,VALID,22.0837,VALID,74,VALID,0.310547,
2011-07-14, 02:34:04,VALID,999.383,VALID,0,VALID,91.7538,VALID,0,VALID,22.1422,VALID,74,VALID,0.300781,
2011-07-14, 02:35:04,VALID,999.399,VALID,0,VALID,91.8377,VALID,0,VALID,22.2007,VALID,74,VALID,0,
2011-07-14, 02:36:04,VALID,999.411,VALID,0,VALID,91.8683,VALID,0,VALID,22.1812,VALID,79,VALID,0.654297,
2011-07-14, 02:37:04,VALID,999.463,VALID,0,VALID,91.914,VALID,0,VALID,22.1617,VALID,100,VALID,1.28789,
2011-07-14, 02:38:04,VALID,999.443,VALID,0,VALID,91.9522,VALID,0,VALID,22.1812,VALID,118,VALID,0.666406,
2011-07-14, 02:39:04,VALID,999.374,VALID,0,VALID,91.9903,VALID,0,VALID,22.2007,VALID,118,VALID,0.3875,
2011-07-14, 02:40:04,VALID,999.355,VALID,0,VALID,92.0437,VALID,0,VALID,22.2397,VALID,4,VALID,0.858203,
2011-07-14, 02:41:04,VALID,999.36,VALID,0,VALID,92.0743,VALID,0,VALID,22.2592,VALID,323,VALID,1.25859,
2011-07-14, 02:42:04,VALID,999.372,VALID,0,VALID,92.0895,VALID,0,VALID,22.2788,VALID,333,VALID,1.10156,
2011-07-14, 02:43:04,VALID,999.391,VALID,0,VALID,92.0209,VALID,0,VALID,22.2381,VALID,355,VALID,0.964453,
2011-07-14, 02:44:04,VALID,999.379,VALID,0,VALID,91.914,VALID,0,VALID,22.2007,VALID,1,VALID,0.729297,
2011-07-14, 02:45:04,VALID,999.357,VALID,0,VALID,91.7462,VALID,0,VALID,22.1227,VALID,1,VALID,0.300391,
2011-07-14, 02:46:04,VALID,999.331,VALID,0,VALID,91.6394,VALID,0,VALID,22.0837,VALID,1,VALID,0,
2011-07-14, 02:47:04,VALID,999.35,VALID,0,VALID,91.5707,VALID,0,VALID,22.0447,VALID,68,VALID,0.588281,
2011-07-14, 02:48:04,VALID,999.347,VALID,0,VALID,91.6394,VALID,0,VALID,22.0447,VALID,75,VALID,0.753516,
2011-07-14, 02:49:04,VALID,999.357,VALID,0,VALID,91.853,VALID,0,VALID,22.082,VALID,101,VALID,1.14297,
2011-07-14, 02:50:04,VALID,999.341,VALID,0,VALID,92.0361,VALID,0,VALID,22.1617,VALID,101,VALID,1.46523,
2011-07-14, 02:51:04,VALID,999.296,VALID,0,VALID,92.0971,VALID,0,VALID,22.199,VALID,101,VALID,0.684766,
2011-07-14, 02:52:04,VALID,999.246,VALID,0,VALID,92.0971,VALID,0,VALID,22.2397,VALID,101,VALID,0.155859,
2011-07-14, 02:53:04,VALID,999.25,VALID,0,VALID,92.0666,VALID,0,VALID,22.2592,VALID,101,VALID,0.160938,
2011-07-14, 02:54:04,VALID,999.262,VALID,0,VALID,92.0056,VALID,0,VALID,22.2397,VALID,101,VALID,0.203516,
2011-07-14, 02:55:04,VALID,999.303,VALID,0,VALID,91.8835,VALID,0,VALID,22.2202,VALID,101,VALID,0.03125,
2011-07-14, 02:56:04,VALID,999.29,VALID,0,VALID,91.7614,VALID,0,VALID,22.1812,VALID,73,VALID,0.894922,
2011-07-14, 02:57:04,VALID,999.282,VALID,0,VALID,91.6699,VALID,0,VALID,22.1812,VALID,58,VALID,1.21016,
2011-07-14, 02:58:04,VALID,999.251,VALID,0,VALID,91.5478,VALID,0,VALID,22.1617,VALID,56,VALID,0.762109,
2011-07-14, 02:59:04,VALID,999.281,VALID,0,VALID,91.4563,VALID,0,VALID,22.1422,VALID,56,VALID,0.412891,
2011-07-14, 03:00:04,VALID,999.303,VALID,0,VALID,91.4486,VALID,0.112286,VALID,22.1015,VALID,56,VALID,0,
2011-07-14, 03:01:04,VALID,999.304,VALID,0,VALID,91.4486,VALID,0.112286,VALID,22.121,VALID,56,VALID,0.459766,
2011-07-14, 03:02:04,VALID,999.364,VALID,0,VALID,91.3037,VALID,0,VALID,22.0413,VALID,33,VALID,1.11953,
2011-07-14, 03:03:04,VALID,999.389,VALID,0,VALID,91.1892,VALID,0,VALID,22.004,VALID,69,VALID,1.38516,
2011-07-14, 03:04:04,VALID,999.39,VALID,0,VALID,91.3342,VALID,0.112286,VALID,22.0235,VALID,73,VALID,0.678125,
2011-07-14, 03:05:04,VALID,999.385,VALID,0,VALID,91.4257,VALID,0.112286,VALID,22.0235,VALID,73,VALID,0.335156,
2011-07-14, 03:06:04,VALID,999.356,VALID,0,VALID,91.4791,VALID,0,VALID,21.9845,VALID,23,VALID,0.795703,
2011-07-14, 03:07:04,VALID,999.339,VALID,0,VALID,91.5478,VALID,0,VALID,21.9633,VALID,12,VALID,1.11523,
2011-07-14, 03:08:04,VALID,999.333,VALID,0,VALID,91.5783,VALID,0,VALID,21.926,VALID,12,VALID,0.617969,
2011-07-14, 03:09:04,VALID,999.35,VALID,0,VALID,91.6546,VALID,0.112286,VALID,21.9065,VALID,336,VALID,0.528516,
2011-07-14, 03:10:04,VALID,999.363,VALID,0,VALID,91.7691,VALID,0,VALID,21.9048,VALID,204,VALID,0.835156,
2011-07-14, 03:11:04,VALID,999.345,VALID,0,VALID,91.8759,VALID,0.112286,VALID,21.9243,VALID,204,VALID,0.0816406,
2011-07-14, 03:12:04,VALID,999.337,VALID,0,VALID,91.9598,VALID,0.112286,VALID,21.9243,VALID,204,VALID,0.209766,
2011-07-14, 03:13:04,VALID,999.305,VALID,0,VALID,91.998,VALID,0,VALID,21.9455,VALID,204,VALID,0.688281,
2011-07-14, 03:14:04,VALID,999.291,VALID,0,VALID,92.0361,VALID,0.112286,VALID,21.9243,VALID,26,VALID,1.06094,
2011-07-14, 03:15:04,VALID,999.288,VALID,0,VALID,91.998,VALID,0,VALID,21.9065,VALID,26,VALID,0.891016,
2011-07-14, 03:16:04,VALID,999.308,VALID,0,VALID,91.8988,VALID,0,VALID,21.848,VALID,26,VALID,0.499219,
2011-07-14, 03:17:04,VALID,999.301,VALID,0,VALID,91.7996,VALID,0,VALID,21.7895,VALID,26,VALID,0.162109,
2011-07-14, 03:18:04,VALID,999.287,VALID,0,VALID,91.7462,VALID,0,VALID,21.77,VALID,26,VALID,0.389062,
2011-07-14, 03:19:04,VALID,999.259,VALID,0,VALID,91.792,VALID,0,VALID,21.8106,VALID,26,VALID,0.552734,
2011-07-14, 03:20:04,VALID,999.262,VALID,0,VALID,91.9369,VALID,0,VALID,21.848,VALID,26,VALID,0.373437,
2011-07-14, 03:21:04,VALID,999.216,VALID,0,VALID,92.0361,VALID,0,VALID,21.848,VALID,26,VALID,0,
2011-07-14, 03:22:04,VALID,999.236,VALID,0,VALID,92.12,VALID,0,VALID,21.8887,VALID,26,VALID,0.0574219,
2011-07-14, 03:23:04,VALID,999.237,VALID,0,VALID,92.1734,VALID,0,VALID,21.887,VALID,26,VALID,0.172266,
2011-07-14, 03:24:04,VALID,999.246,VALID,0,VALID,92.204,VALID,0,VALID,21.9065,VALID,26,VALID,0.340234,
2011-07-14, 03:25:04,VALID,999.227,VALID,0,VALID,92.2192,VALID,0,VALID,21.9667,VALID,26,VALID,0.351953,
2011-07-14, 03:26:04,VALID,999.188,VALID,0,VALID,92.265,VALID,0,VALID,22.0057,VALID,26,VALID,0.329297,
2011-07-14, 03:27:04,VALID,999.186,VALID,0,VALID,92.2574,VALID,0,VALID,22.0252,VALID,26,VALID,0.249219,
2011-07-14, 03:28:04,VALID,999.191,VALID,0,VALID,92.2803,VALID,0,VALID,22.0837,VALID,26,VALID,0.362891,
2011-07-14, 03:29:04,VALID,999.199,VALID,0,VALID,92.2879,VALID,0,VALID,22.1227,VALID,26,VALID,0.853906,
2011-07-14, 03:30:04,VALID,999.21,VALID,0,VALID,92.2803,VALID,0,VALID,22.199,VALID,342,VALID,0.555469,
2011-07-14, 03:31:04,VALID,999.229,VALID,0,VALID,92.2879,VALID,0,VALID,22.2788,VALID,325,VALID,0,
2011-07-14, 03:32:04,VALID,999.267,VALID,0,VALID,92.1734,VALID,0,VALID,22.2576,VALID,325,VALID,0.448438,
2011-07-14, 03:33:04,VALID,999.287,VALID,0,VALID,91.7996,VALID,0,VALID,22.1617,VALID,325,VALID,0.619141,
2011-07-14, 03:34:04,VALID,999.287,VALID,0,VALID,91.441,VALID,0,VALID,22.0837,VALID,1,VALID,0.766797,
2011-07-14, 03:35:04,VALID,999.245,VALID,0,VALID,91.5478,VALID,0,VALID,22.1015,VALID,27,VALID,0.814062,
2011-07-14, 03:36:04,VALID,999.269,VALID,0,VALID,91.502,VALID,0,VALID,22.1032,VALID,27,VALID,1.29688,
2011-07-14, 03:37:04,VALID,999.289,VALID,0,VALID,91.4639,VALID,0,VALID,22.0625,VALID,27,VALID,0.923437,
2011-07-14, 03:38:04,VALID,999.297,VALID,0,VALID,91.3189,VALID,0,VALID,22.0057,VALID,27,VALID,0.598828,
2011-07-14, 03:39:04,VALID,999.285,VALID,0,VALID,91.2731,VALID,0,VALID,21.9455,VALID,27,VALID,0.0328125,
2011-07-14, 03:40:04,VALID,999.24,VALID,0,VALID,91.235,VALID,0,VALID,21.9065,VALID,26,VALID,0.516406,
2011-07-14, 03:41:04,VALID,999.214,VALID,0,VALID,91.3952,VALID,0,VALID,21.965,VALID,319,VALID,0.775,
2011-07-14, 03:42:04,VALID,999.197,VALID,0,VALID,91.6241,VALID,0,VALID,22.0447,VALID,319,VALID,0.446875,
2011-07-14, 03:43:04,VALID,999.228,VALID,0,VALID,91.708,VALID,0,VALID,22.0235,VALID,319,VALID,0,
2011-07-14, 03:44:04,VALID,999.236,VALID,0,VALID,91.6851,VALID,0,VALID,21.9845,VALID,319,VALID,0,
2011-07-14, 03:45:04,VALID,999.266,VALID,0,VALID,91.6394,VALID,0,VALID,21.9862,VALID,319,VALID,0.00585938,
2011-07-14, 03:46:04,VALID,999.252,VALID,0,VALID,91.7309,VALID,0,VALID,21.9862,VALID,319,VALID,0,
2011-07-14, 03:47:04,VALID,999.249,VALID,0,VALID,91.9064,VALID,0,VALID,22.0642,VALID,82,VALID,0.349219,